EXS529 EGNT-LPMA

Flight info

Callsign EXS529
Flight time N/A
Altitude 32000
Route GIRLI P18 GASKO P16 RIBEL DCT GUNTU UL70 PENIL M144 BAGSO DCT KOMER DCT BIBLA/M074F320 DCT OMOKO T16 NAVIX/N0429F320 DCT KICAS
Aircraft B738/M-SDE2E3FGHIRWXY/LB1

Departure

Time 2026-05-04 14:42
Airport Newcastle International Airport (EGNT)

Arrival

Time N/A
Airport Cristiano Ronaldo International Airport (LPMA)
Time Latitude Longitude Altitude Speed Heading
2026-05-04 14:05 55.03736 -1.70760 266 ft 0 kts 184°
2026-05-04 14:30 55.03758 -1.70757 266 ft 3 kts 184°
2026-05-04 14:30 55.03804 -1.70764 266 ft 4 kts 135°
2026-05-04 14:31 55.03811 -1.70799 266 ft 4 kts 94°
2026-05-04 14:31 55.03812 -1.70822 266 ft 0 kts 94°
2026-05-04 14:34 55.03810 -1.70784 266 ft 6 kts 94°
2026-05-04 14:35 55.03807 -1.70700 266 ft 7 kts 94°
2026-05-04 14:35 55.03803 -1.70615 266 ft 7 kts 94°
2026-05-04 14:35 55.03800 -1.70532 266 ft 7 kts 94°
2026-05-04 14:35 55.03794 -1.70443 266 ft 8 kts 104°
2026-05-04 14:36 55.03782 -1.70355 266 ft 8 kts 96°
2026-05-04 14:36 55.03778 -1.70219 263 ft 14 kts 93°
2026-05-04 14:36 55.03774 -1.70046 260 ft 14 kts 89°
2026-05-04 14:36 55.03781 -1.69876 258 ft 14 kts 86°
2026-05-04 14:37 55.03796 -1.69716 257 ft 13 kts 79°
2026-05-04 14:37 55.03822 -1.69567 256 ft 13 kts 69°
2026-05-04 14:37 55.03857 -1.69427 254 ft 12 kts 66°
2026-05-04 14:37 55.03892 -1.69292 253 ft 12 kts 65°
2026-05-04 14:38 55.03926 -1.69160 252 ft 12 kts 65°
2026-05-04 14:38 55.03960 -1.69032 251 ft 11 kts 65°
2026-05-04 14:38 55.04005 -1.68863 250 ft 22 kts 65°
2026-05-04 14:38 55.04075 -1.68602 248 ft 24 kts 65°
2026-05-04 14:39 55.04144 -1.68347 247 ft 23 kts 65°
2026-05-04 14:39 55.04209 -1.68101 246 ft 22 kts 65°
2026-05-04 14:39 55.04265 -1.67890 246 ft 18 kts 65°
2026-05-04 14:40 55.04333 -1.67546 241 ft 10 kts 94°
2026-05-04 14:40 55.04329 -1.67457 240 ft 6 kts 99°
2026-05-04 14:40 55.04301 -1.67392 240 ft 8 kts 144°
2026-05-04 14:40 55.04230 -1.67362 240 ft 10 kts 195°
2026-05-04 14:41 55.04201 -1.67437 241 ft 0 kts 245°
2026-05-04 14:41 55.04200 -1.67442 242 ft 6 kts 245°
2026-05-04 14:41 55.03733 -1.69201 255 ft 148 kts 246°
2026-05-04 14:42 55.02658 -1.72997 1404 ft 190 kts 246°
2026-05-04 14:42 55.02280 -1.74399 1988 ft 193 kts 248°
2026-05-04 14:42 55.01370 -1.76438 2470 ft 219 kts 213°
2026-05-04 14:43 54.99881 -1.77360 2875 ft 233 kts 201°
2026-05-04 14:43 54.98327 -1.78230 3457 ft 237 kts 201°
2026-05-04 14:43 54.96732 -1.79161 3860 ft 250 kts 201°
2026-05-04 14:43 54.95053 -1.80171 4422 ft 260 kts 202°
2026-05-04 14:44 54.93358 -1.81212 5364 ft 255 kts 202°
2026-05-04 14:44 54.91677 -1.82262 6192 ft 258 kts 202°
2026-05-04 14:44 54.89975 -1.83337 6972 ft 262 kts 202°
2026-05-04 14:44 54.88242 -1.84441 7637 ft 270 kts 202°
2026-05-04 14:45 54.86459 -1.85579 8341 ft 274 kts 203°
2026-05-04 14:45 54.84718 -1.86691 9054 ft 279 kts 202°
2026-05-04 14:45 54.82984 -1.87779 9727 ft 284 kts 199°
2026-05-04 14:45 54.80992 -1.88043 10332 ft 297 kts 172°
2026-05-04 14:46 54.78970 -1.86817 10532 ft 322 kts 156°
2026-05-04 14:46 54.76891 -1.85070 10729 ft 343 kts 156°
2026-05-04 14:46 54.74697 -1.83242 11179 ft 354 kts 156°
2026-05-04 14:46 54.72542 -1.81506 11852 ft 355 kts 160°
2026-05-04 14:47 54.70149 -1.80690 12582 ft 353 kts 183°
2026-05-04 14:47 54.67737 -1.81190 13280 ft 354 kts 192°
2026-05-04 14:47 54.65303 -1.82010 13911 ft 359 kts 193°
2026-05-04 14:47 54.62811 -1.82887 14515 ft 363 kts 193°
2026-05-04 14:48 54.60353 -1.83720 15123 ft 366 kts 192°
2026-05-04 14:48 54.57813 -1.84546 15759 ft 369 kts 192°
2026-05-04 14:48 54.55309 -1.85344 16345 ft 372 kts 192°
2026-05-04 14:48 54.52720 -1.86159 16947 ft 376 kts 192°
2026-05-04 14:49 54.50165 -1.86957 17533 ft 379 kts 192°
2026-05-04 14:49 54.47525 -1.87781 18114 ft 383 kts 191°
2026-05-04 14:49 54.45239 -1.88495 18593 ft 385 kts 191°
2026-05-04 14:49 54.42590 -1.89322 19087 ft 389 kts 191°
2026-05-04 14:50 54.39922 -1.90155 19575 ft 392 kts 191°
2026-05-04 14:50 54.37223 -1.91001 20044 ft 396 kts 191°
2026-05-04 14:50 54.34503 -1.91854 20522 ft 399 kts 191°
2026-05-04 14:50 54.31753 -1.92714 21002 ft 403 kts 191°
2026-05-04 14:51 54.28988 -1.93579 21449 ft 407 kts 191°
2026-05-04 14:51 54.26219 -1.94450 21846 ft 412 kts 192°
2026-05-04 14:51 54.23483 -1.95902 22391 ft 412 kts 204°
2026-05-04 14:51 54.20941 -1.98285 22938 ft 413 kts 214°
2026-05-04 14:52 54.18708 -2.01401 23331 ft 418 kts 223°
2026-05-04 14:52 54.16590 -2.04849 23719 ft 422 kts 224°
2026-05-04 14:52 54.14476 -2.08339 24085 ft 425 kts 224°
2026-05-04 14:52 54.12338 -2.11840 24452 ft 428 kts 223°
2026-05-04 14:53 54.10168 -2.15350 24720 ft 433 kts 223°
2026-05-04 14:53 54.07995 -2.18830 25050 ft 436 kts 223°
2026-05-04 14:53 54.05860 -2.22232 25408 ft 438 kts 223°
2026-05-04 14:53 54.03599 -2.25825 25763 ft 440 kts 223°
2026-05-04 14:54 54.02045 -2.28299 25992 ft 442 kts 224°
2026-05-04 14:54 53.99943 -2.32115 26310 ft 445 kts 230°
2026-05-04 14:54 53.98001 -2.36148 26623 ft 448 kts 232°
2026-05-04 14:54 53.96065 -2.40319 26932 ft 451 kts 232°
2026-05-04 14:55 53.94356 -2.44020 27148 ft 455 kts 232°
2026-05-04 14:55 53.92392 -2.48242 27455 ft 458 kts 231°
2026-05-04 14:55 53.90409 -2.52459 27779 ft 460 kts 231°
2026-05-04 14:55 53.88764 -2.55925 28030 ft 462 kts 231°
2026-05-04 14:56 53.86807 -2.60020 28358 ft 463 kts 231°
2026-05-04 14:56 53.84801 -2.64197 28732 ft 463 kts 231°
2026-05-04 14:56 53.82763 -2.68431 29064 ft 465 kts 231°
2026-05-04 14:56 53.80725 -2.72658 29467 ft 464 kts 231°
2026-05-04 14:57 53.78701 -2.76849 29888 ft 464 kts 231°
2026-05-04 14:57 53.76815 -2.80749 30225 ft 464 kts 231°
2026-05-04 14:57 53.74974 -2.84552 30515 ft 463 kts 230°
2026-05-04 14:57 53.72932 -2.88762 30897 ft 461 kts 230°
2026-05-04 14:58 53.71135 -2.92463 31264 ft 459 kts 230°
2026-05-04 14:58 53.69113 -2.96622 31617 ft 459 kts 230°
2026-05-04 14:58 53.67084 -3.00787 31815 ft 461 kts 230°
2026-05-04 14:58 53.65737 -3.03550 31993 ft 461 kts 230°
2026-05-04 14:59 53.61136 -3.13628 32043 ft 466 kts 243°
2026-05-04 14:59 53.59617 -3.24023 32059 ft 457 kts 272°
2026-05-04 15:00 53.59824 -3.29218 32091 ft 455 kts 277°
2026-05-04 15:00 53.60313 -3.38010 32072 ft 456 kts 277°
2026-05-04 15:01 53.61002 -3.52348 32067 ft 458 kts 276°
2026-05-04 15:01 53.61258 -3.58277 32067 ft 458 kts 276°
2026-05-04 15:02 53.61631 -3.67785 32066 ft 459 kts 276°
2026-05-04 15:02 53.62122 -3.78518 32066 ft 459 kts 276°
2026-05-04 15:03 53.62583 -3.89254 32065 ft 460 kts 276°
2026-05-04 15:03 53.63023 -3.99997 32067 ft 460 kts 276°
2026-05-04 15:04 53.63441 -4.10732 32068 ft 459 kts 276°
2026-05-04 15:04 53.63845 -4.21454 32061 ft 458 kts 276°
2026-05-04 15:05 53.64239 -4.32140 32065 ft 457 kts 276°
2026-05-04 15:05 53.64617 -4.42782 32066 ft 455 kts 276°
2026-05-04 15:06 53.64984 -4.53388 32066 ft 454 kts 275°
2026-05-04 15:07 53.65519 -4.69255 32059 ft 452 kts 275°
2026-05-04 15:07 53.65866 -4.79803 32070 ft 450 kts 275°
2026-05-04 15:08 53.66208 -4.90324 32068 ft 449 kts 275°
2026-05-04 15:08 53.66551 -5.00692 32076 ft 447 kts 275°
2026-05-04 15:09 53.66887 -5.11092 32076 ft 446 kts 275°
2026-05-04 15:09 53.67204 -5.21483 32078 ft 446 kts 275°
2026-05-04 15:10 53.67646 -5.37050 32080 ft 445 kts 275°
2026-05-04 15:10 53.67677 -5.46112 32039 ft 448 kts 261°
2026-05-04 15:11 53.66710 -5.51062 32101 ft 449 kts 243°
2026-05-04 15:11 53.64934 -5.55397 32067 ft 450 kts 225°
2026-05-04 15:11 53.62691 -5.59075 32098 ft 450 kts 223°
2026-05-04 15:12 53.58135 -5.66339 32082 ft 453 kts 223°
2026-05-04 15:12 53.53564 -5.73691 32082 ft 456 kts 223°
2026-05-04 15:13 53.48993 -5.81117 32085 ft 459 kts 223°
2026-05-04 15:13 53.44396 -5.88596 32084 ft 461 kts 223°
2026-05-04 15:14 53.39777 -5.96092 32080 ft 463 kts 223°
2026-05-04 15:14 53.35135 -6.03597 32077 ft 464 kts 223°
2026-05-04 15:15 53.30487 -6.11084 32078 ft 463 kts 223°
2026-05-04 15:15 53.25849 -6.18533 32066 ft 462 kts 223°
2026-05-04 15:16 53.18901 -6.29646 32072 ft 460 kts 223°
2026-05-04 15:17 53.12017 -6.40606 32076 ft 457 kts 223°
2026-05-04 15:17 53.05122 -6.51533 32071 ft 456 kts 223°
2026-05-04 15:18 53.00513 -6.58809 32073 ft 458 kts 223°
2026-05-04 15:19 52.93563 -6.69741 32065 ft 460 kts 223°
2026-05-04 15:19 52.86558 -6.80709 32064 ft 463 kts 223°
2026-05-04 15:20 52.81732 -6.87637 32066 ft 463 kts 217°
2026-05-04 15:20 52.76581 -6.94079 32065 ft 465 kts 215°
2026-05-04 15:21 52.71388 -7.00488 32058 ft 467 kts 215°
2026-05-04 15:22 52.63616 -7.10212 32053 ft 468 kts 216°
2026-05-04 15:22 52.55864 -7.19945 32057 ft 467 kts 216°
2026-05-04 15:23 52.50685 -7.26424 32058 ft 468 kts 215°
2026-05-04 15:23 52.45495 -7.32893 32065 ft 468 kts 215°
2026-05-04 15:24 52.35126 -7.45758 32045 ft 468 kts 215°
2026-05-04 15:25 52.29931 -7.52175 32051 ft 468 kts 215°
2026-05-04 15:26 52.22501 -7.61315 32068 ft 470 kts 215°
2026-05-04 15:26 52.14659 -7.70922 32067 ft 471 kts 214°
2026-05-04 15:27 52.06778 -7.80534 32063 ft 472 kts 214°
2026-05-04 15:28 51.98883 -7.90121 32071 ft 474 kts 214°
2026-05-04 15:29 51.91707 -7.98795 32067 ft 475 kts 214°
2026-05-04 15:30 51.75921 -8.17751 32083 ft 477 kts 214°
2026-05-04 15:31 51.69743 -8.25126 32053 ft 478 kts 214°
2026-05-04 15:32 51.61270 -8.35207 32064 ft 477 kts 214°
2026-05-04 15:34 51.53891 -8.44106 32075 ft 476 kts 216°
2026-05-04 15:34 51.49646 -8.48809 32014 ft 478 kts 213°
2026-05-04 15:35 51.46807 -8.52013 31821 ft 480 kts 205°
2026-05-04 15:35 51.45250 -8.53306 31569 ft 485 kts 205°
2026-05-04 15:35 51.42988 -8.55299 31431 ft 489 kts 211°
2026-05-04 15:36 51.39164 -8.60027 31954 ft 487 kts 218°
2026-05-04 15:36 51.37515 -8.62113 32178 ft 485 kts 216°
2026-05-04 15:36 51.35756 -8.64341 32250 ft 486 kts 219°
2026-05-04 15:37 51.32359 -8.68784 32113 ft 493 kts 219°
2026-05-04 15:37 51.28574 -8.73516 32015 ft 490 kts 216°
2026-05-04 15:38 51.23192 -8.79898 32089 ft 476 kts 214°
2026-05-04 15:38 51.18241 -8.85636 32067 ft 477 kts 214°
2026-05-04 15:39 51.12888 -8.91889 32067 ft 478 kts 218°
2026-05-04 15:40 51.05425 -9.02472 32037 ft 480 kts 222°
2026-05-04 15:40 51.00516 -9.09650 32067 ft 480 kts 221°
2026-05-04 15:41 50.95566 -9.16769 32088 ft 481 kts 221°
2026-05-04 15:41 50.90572 -9.23868 32076 ft 482 kts 221°
2026-05-04 15:42 50.85573 -9.30937 32072 ft 482 kts 221°
2026-05-04 15:42 50.80561 -9.38006 32073 ft 482 kts 221°
2026-05-04 15:43 50.75558 -9.45044 32064 ft 482 kts 221°
2026-05-04 15:43 50.70550 -9.52069 32072 ft 481 kts 221°
2026-05-04 15:44 50.65542 -9.59073 32074 ft 481 kts 221°
2026-05-04 15:44 50.60526 -9.66069 32070 ft 481 kts 221°
2026-05-04 15:45 50.55507 -9.73047 32076 ft 481 kts 221°
2026-05-04 15:45 50.50483 -9.80010 32082 ft 482 kts 221°
2026-05-04 15:46 50.45456 -9.86959 32112 ft 482 kts 221°
2026-05-04 15:46 50.40447 -9.93862 32081 ft 482 kts 221°
2026-05-04 15:47 50.35411 -10.00783 32069 ft 482 kts 221°
2026-05-04 15:47 50.30377 -10.07680 32072 ft 481 kts 221°
2026-05-04 15:48 50.25340 -10.14560 32075 ft 480 kts 220°
2026-05-04 15:48 50.17813 -10.24805 32099 ft 479 kts 221°
2026-05-04 15:49 50.13592 -10.30531 32082 ft 479 kts 221°
2026-05-04 15:49 50.08558 -10.37341 32076 ft 479 kts 221°
2026-05-04 15:50 50.03516 -10.44142 32074 ft 479 kts 221°
2026-05-04 15:50 49.98475 -10.50923 32076 ft 479 kts 221°
2026-05-04 15:51 49.93432 -10.57688 32107 ft 479 kts 221°
2026-05-04 15:51 49.88411 -10.64401 32101 ft 480 kts 221°
2026-05-04 15:52 49.83338 -10.71167 32084 ft 481 kts 221°
2026-05-04 15:52 49.78262 -10.77916 32081 ft 481 kts 221°
2026-05-04 15:53 49.73179 -10.84656 32081 ft 481 kts 221°
2026-05-04 15:53 49.68100 -10.91372 32079 ft 480 kts 221°
2026-05-04 15:54 49.63014 -10.98077 32088 ft 481 kts 221°
2026-05-04 15:54 49.57926 -11.04765 32087 ft 480 kts 221°
2026-05-04 15:55 49.52842 -11.11430 32087 ft 480 kts 221°
2026-05-04 15:55 49.47755 -11.18079 32087 ft 480 kts 221°
2026-05-04 15:56 49.42665 -11.24714 32057 ft 479 kts 221°
2026-05-04 15:56 49.37577 -11.31328 32092 ft 479 kts 221°
2026-05-04 15:57 49.32487 -11.37927 32095 ft 479 kts 221°
2026-05-04 15:57 49.27385 -11.44521 32094 ft 479 kts 221°
2026-05-04 15:58 49.22287 -11.51092 32096 ft 479 kts 221°
2026-05-04 15:58 49.17189 -11.57645 32060 ft 479 kts 221°
2026-05-04 15:59 49.12082 -11.64192 32095 ft 479 kts 221°
2026-05-04 15:59 49.06972 -11.70724 32090 ft 479 kts 221°
2026-05-04 16:00 49.01854 -11.77248 32106 ft 480 kts 221°
2026-05-04 16:00 48.96764 -11.83720 32099 ft 480 kts 221°
2026-05-04 16:01 48.91632 -11.90228 32105 ft 480 kts 221°
2026-05-04 16:01 48.86497 -11.96719 32106 ft 480 kts 220°
2026-05-04 16:02 48.80799 -12.01955 32096 ft 480 kts 200°
2026-05-04 16:03 48.71393 -12.07116 32092 ft 479 kts 198°
2026-05-04 16:03 48.65125 -12.10529 32129 ft 479 kts 199°
2026-05-04 16:04 48.58868 -12.13992 32104 ft 479 kts 199°
2026-05-04 16:04 48.49498 -12.19201 32075 ft 478 kts 199°
2026-05-04 16:05 48.43263 -12.22659 32104 ft 478 kts 199°
2026-05-04 16:06 48.33899 -12.27830 32104 ft 478 kts 199°
2026-05-04 16:07 48.21394 -12.34701 32113 ft 479 kts 199°
2026-05-04 16:08 48.08868 -12.41549 32099 ft 479 kts 199°
2026-05-04 16:09 47.93253 -12.50036 32114 ft 479 kts 199°
2026-05-04 16:10 47.80709 -12.56814 32110 ft 480 kts 199°
2026-05-04 16:11 47.68158 -12.63561 32109 ft 480 kts 199°
2026-05-04 16:12 47.49318 -12.73624 32111 ft 480 kts 199°
2026-05-04 16:13 47.36765 -12.80287 32105 ft 479 kts 199°
2026-05-04 16:14 47.24241 -12.86901 32101 ft 477 kts 200°
2026-05-04 16:16 47.08686 -12.95069 32107 ft 473 kts 199°
2026-05-04 16:17 46.93236 -13.03132 32100 ft 472 kts 200°
2026-05-04 16:18 46.80877 -13.09546 32113 ft 471 kts 200°
2026-05-04 16:19 46.65435 -13.17517 32103 ft 471 kts 200°
2026-05-04 16:20 46.49946 -13.25464 32116 ft 474 kts 200°
2026-05-04 16:22 46.34380 -13.33401 32072 ft 474 kts 200°
2026-05-04 16:23 46.15796 -13.42815 32126 ft 471 kts 200°
2026-05-04 16:25 45.97255 -13.52140 32115 ft 470 kts 200°
2026-05-04 16:26 45.75604 -13.62946 32141 ft 474 kts 200°
2026-05-04 16:28 45.59949 -13.70705 32129 ft 477 kts 200°
2026-05-04 16:29 45.38091 -13.81460 32136 ft 472 kts 200°
2026-05-04 16:31 45.22618 -13.89021 32139 ft 471 kts 201°
2026-05-04 16:32 45.04042 -13.98044 32142 ft 470 kts 201°
2026-05-04 16:33 44.91767 -14.04430 32155 ft 470 kts 204°